Amado Nervo National Airport
MMEP : now visible

Airfield :











YOU CAN JOIN US ON...

 
LOGIN :

Register | Disclaimer

   EN    FR    IT 

 









Legend :    VFR   Marginal VFR   IFR   Intensive IFR   Very Intensive IFR
Visi :
Ceiling :
>= 8 km
>= 3000ft
5 to 8 km
1000 to 3000 ft
1500m to 5 km
500 to 1000 ft
800 to 1500m
200 to 500 ft
< 800m
< 200 ft
Symbols :   Thunderstorms  Fog  Heavy snow  Heavy precipitations  Wind > 20 kt






- Airport Elevation : 3020 ft
- IATA code : TPQ


MMEP - Amado Nervo National

CURRENT METAR :
  • 031752Z 24006KT 12SM SKC 30/13 A3001 RMK SLP126 56002 951

EXPIRED METARs :
  • 031642Z 00000KT 12SM SKC 22/13 A3001
  • 031540Z 00000KT 12SM SKC 21/13 A3002

TAF TAF MMEP
Valid from the 03 at 18:00 until the 04 at 18:00 UTC


031646Z 0318/0418 33010KT P6SM SKC
FM040300 00000KT P6SM SKC
FM041600 29006KT P6SM SKC



MET'MAP, your aeronautical weather chart ! - Copyright ORBIFLY December 2007 - Disclaimer

ORBIFLY MET'MAP TEAM :

Programming & Development : Alexandra Zaïnal
Concept & original design : Baudouin d'Aumeries
Assistance for programming : Marc-Olivier Méhu
Technical & hardware support : Manuel Goepfert

Contact : metmap@orbifly.com




SOURCES & CREDITS :

   NOAA       Earth
Advisory